This is the latest recevied weather packets stored in our database for station/object CQ0XSM-11. If no packets are shown the sender has not sent any weather packets the latest 10 day(s).
| Time | Temp. | Humidity | Pressure | Rain* | Wind** | Luminosity | Snow |
|---|---|---|---|---|---|---|---|
| 1777890550 | 12.78° C | 68% | 997.4 hPa | 0.25 mm | - | - | - |
| 1777890249 | 12.22° C | 73% | 997.3 hPa | 0.25 mm | - | - | - |
| 1777889955 | 12.22° C | 72% | 997.4 hPa | 0.25 mm | - | - | - |
| 1777889632 | 12.22° C | 72% | 997.4 hPa | 0.25 mm | - | - | - |
| 1777889341 | 12.22° C | 75% | 997.3 hPa | 0.25 mm | - | - | - |
| 1777889038 | 12.22° C | 82% | 997.3 hPa | 0.25 mm | - | - | - |
| 1777888727 | 11.67° C | 84% | 997.3 hPa | 0.25 mm | - | - | - |
| 1777888437 | 11.67° C | 81% | 997.3 hPa | 0.25 mm | - | - | - |
| 1777888151 | 11.67° C | 94% | 997.3 hPa | 0.25 mm | - | - | - |
| 1777887811 | 11.67° C | 87% | 997.2 hPa | 0.25 mm | - | - | - |
| 1777887519 | 11.67° C | 93% | 997.1 hPa | 0.25 mm | - | - | - |
| 1777887225 | 11.67° C | 90% | 997.1 hPa | 0.25 mm | - | - | - |
| 1777886912 | 11.11° C | 90% | 997.2 hPa | 0.25 mm | - | - | - |
| 1777886600 | 11.11° C | 97% | 997.2 hPa | 0.25 mm | - | - | - |
| 1777886309 | 11.11° C | 100% | 997.1 hPa | 0.25 mm | - | - | - |
| 1777885993 | 11.11° C | 100% | 997.2 hPa | 0.25 mm | - | - | - |
| 1777885699 | 10.56° C | 100% | 997.1 hPa | 0.25 mm | - | - | - |
| 1777885407 | 10.56° C | 100% | 997.1 hPa | 0.25 mm | - | - | - |
| 1777885093 | 10.56° C | 100% | 997.1 hPa | 0.25 mm | - | - | - |
| 1777884785 | 10.56° C | 100% | 997.1 hPa | 0.25 mm | - | - | - |
| 1777884501 | 11.11° C | 100% | 997.1 hPa | 0.25 mm | - | - | - |
| 1777884174 | 10.56° C | 100% | 997 hPa | 0.25 mm | - | - | - |
| 1777883588 | 10° C | 100% | 997 hPa | 0.25 mm | - | - | - |
| 1777883267 | 10° C | 100% | 996.9 hPa | 0.25 mm | - | - | - |
| 1777882964 | 10° C | 100% | 996.9 hPa | 0.25 mm | - | - | - |
* Rain since midnight (hover to see other rain measurements)
** Current wind speed in m/s (hover to see current wind gust speed)